FENGYUN 1C DEB, 30295

Orbit data source: Space-Track

FENGYUN 1C DEB, 30295 is space debris in SSO originally from a launch on Mon, 10 May 1999 UTC launched from the Taiyaun Space Center, China (TSC). Fengyun 1C debris stems from the Chinese weather satellite Fengyun-1C, which was intentionally destroyed by a Chinese anti-satellite missile in 2007. This event dramatically increased the amount of space debris, with thousands of trackable fragments posing hazards to satellites and human spaceflight. The Fengyun 1C debris cloud has become a focal point in discussions about space sustainability and the need for international regulations to prevent the creation of new debris.

Loading next visibility...
Identifier
30295, 1999-025ZG
Orbit
SSO
Country
Flag of CNCN / PRC
Related business
Manufacturer
Unknown
Mission
Spacecraft
Bus & Motor
Unknown
Mass
Unknown
Launch date (UTC)
1999-05-10 (27 years ago)
Launch vehicle
Unknown
Launch site
Taiyaun Space Center, China (TSC)
Object type
Payload
Rocket body
Debris
Shape & HBR
Unknown shape, 0.1 m
Radar Cross Section
Small (<0.1 m²)

Expand to show TLE details & history
Last TLE update: 2 days ago

TLE from 2 days ago
0 FENGYUN 1C DEB
1 30295U 99025ZG  25346.52778573  .00000559  00000-0  24477-3 0  9994
2 30295  98.5084   8.9826 0094517  83.0965  70.1582 14.25043848981735
Epoch: 2025-12-12T12:40Z
TLE epoch observation values (Epoch: 2025-12-12T12:40:00.687Z)
Latitude
25.45081°
Longitude
-78.42733°
Altitude
788.95 km
Speed
7.473 km/s
True Right ascension
12h 52m 10s
True Declination
25° 19' 06"
Sunlit
Object was in daylight at epoch
Visualization orbit readout
Latitude
Unknown
Longitude
Unknown
Altitude
Unknown
Speed
Unknown
Apparent Right ascension
Unknown
Apparent Declination
Unknown
Sunlit
N/A
Visualization observer readout
Local Sidereal Time
02:40:27
Azimuth
Unknown
Elevation
Unknown
Doppler factor
Unknown
Orbital elements
Apogee altitude
873.385 km
Perigee altitude
737.59 km
Semi-major axis
7,183.624 km
Eccentricity
0.00945
Inclination
98.5084°
RAAN
8.9826°
Arg. of periapsis
83.0965°
True anomaly
71.18103°
Mean anomaly
70.1582°
Eccentric anomaly
70.66921°
Mean motion
3.56474 °/min
Orbital period
100.99 mins
BSTAR
0.00024477
Loading maneuver chart data...
Computing Atmospheric mass density...

Documentation

Showing up to 5 results
|